DW1482 Weather Reports


time (UTC)temp
F
wind
direction
speed
knots
gust
knots
rain 1hr
in
rain 24hr
in
rain mn
in
humidity
%
barometer
mb
20260506161511 45 67 2.6 9.6 0.00 0.00 0.00 43 1017.8
20260506160014 45 15 2.6 9.6 0.00 0.00 0.00 44 1017.8
20260506154523 45 330 0.9 12.2 0.00 0.00 0.00 44 1017.9
20260506153025 44 5 1.7 8.7 0.00 0.00 0.00 46 1017.9
20260506151509 43 43 2.6 7.0 0.00 0.00 0.00 47 1017.9
20260506150012 42 311 0.0 6.1 0.00 0.00 0.00 54 1018.0
20260506144519 42 352 1.7 4.3 0.00 0.00 0.00 51 1018.0
20260506143024 41 5 0.0 2.6 0.00 0.00 0.00 52 1018.1
20260506141526 41 5 0.9 3.5 0.00 0.00 0.00 54 1018.2
20260506140019 41 5 0.0 2.6 0.00 0.00 0.00 57 1018.3
20260506134543 41 5 0.0 3.5 0.00 0.00 0.00 53 1018.3
20260506133025 39 5 0.9 2.6 0.00 0.00 0.00 58 1018.1
20260506131527 39 44 0.9 3.5 0.00 0.00 0.00 58 1018.1
20260506130018 37 44 0.0 2.6 0.00 0.00 0.00 59 1017.9
20260506124521 37 44 0.9 2.6 0.00 0.00 0.00 59 1017.9
20260506123026 36 44 0.0 1.7 0.00 0.00 0.00 60 1017.6
20260506121527 35 44 0.0 1.7 0.00 0.00 0.00 61 1017.5
20260506120019 35 44 0.0 1.7 0.00 0.00 0.00 62 1017.2
20260506114533 35 44 0.9 2.6 0.00 0.00 0.00 63 1017.2
20260506113033 34 44 0.0 2.6 0.00 0.00 0.00 64 1017.1
20260506111511 34 44 0.0 0.9 0.00 0.00 0.00 65 1017.0
20260506110009 34 44 0.0 2.6 0.00 0.00 0.00 65 1017.0
20260506104503 34 44 0.0 1.7 0.00 0.00 0.00 66 1016.9
20260506103019 34 44 0.0 0.0 0.00 0.00 0.00 65 1016.8
20260506101511 35 44 0.0 0.0 0.00 0.00 0.00 65 1016.8
20260506100004 35 44 0.0 0.0 0.00 0.00 0.00 65 1016.8
20260506094504 35 44 0.0 2.6 0.00 0.00 0.00 64 1016.9
20260506093010 35 44 0.0 0.0 0.00 0.00 0.00 64 1016.8
20260506091516 35 44 0.0 1.7 0.00 0.00 0.00 63 1016.7
20260506090006 35 44 0.0 2.6 0.00 0.00 0.00 63 1016.6
20260506084507 35 44 0.0 0.0 0.00 0.00 0.00 62 1016.6
20260506083012 35 44 0.0 3.5 0.00 0.00 0.00 62 1016.4
20260506081523 35 44 0.0 3.5 0.00 0.00 0.00 62 1016.5
20260506073016 35 44 0.0 0.9 0.00 0.00 0.00 61 1016.5
20260506071521 35 44 0.0 3.5 0.00 0.00 0.00 60 1016.5
20260506061532 34 44 0.0 0.0 0.00 0.00 0.00 61 1016.5
20260506044517 35 44 0.0 3.5 0.00 0.00 0.00 61 1016.1
20260506043018 35 44 0.0 2.6 0.00 0.00 0.00 60 1016.1
20260506041527 35 44 0.0 1.7 0.00 0.00 0.00 59 1016.0
20260506040028 35 44 0.9 2.6 0.00 0.00 0.00 58 1016.1
20260506034526 35 44 0.9 2.6 0.00 0.00 0.00 59 1015.8
20260506033019 36 44 0.0 1.7 0.00 0.00 0.00 57 1015.7
20260506031528 37 44 0.0 2.6 0.00 0.00 0.00 55 1015.6
20260506030026 38 44 0.0 2.6 0.00 0.00 0.00 53 1015.3
20260506024537 39 44 1.7 5.2 0.00 0.00 0.00 51 1015.0
20260506023020 40 44 1.7 7.0 0.00 0.00 0.00 50 1014.8
20260506021506 41 40 3.5 7.8 0.00 0.00 0.00 49 1014.6
20260506020010 42 33 1.7 7.8 0.00 0.00 0.00 47 1014.4
20260506014516 43 44 3.5 9.6 0.00 0.00 0.00 45 1014.2
20260506013027 44 45 2.6 7.8 0.00 0.00 0.00 44 1014.0
20260506011503 44 32 4.3 9.6 0.00 0.00 0.00 43 1014.1
20260506010010 44 39 3.5 8.7 0.00 0.00 0.00 43 1013.9
20260506004516 45 24 4.3 9.6 0.00 0.00 0.00 42 1013.8
20260506003022 45 52 5.2 12.2 0.00 0.00 0.00 42 1013.8
20260506001508 45 57 3.5 10.4 0.00 0.00 0.00 40 1013.7
20260506000011 46 36 5.2 12.2 0.00 0.00 0.00 40 1013.5
20260505234536 46 24 5.2 11.3 0.00 0.00 0.00 38 1013.5
20260505233021 47 339 5.2 13.0 0.00 0.00 0.00 38 1013.4
20260505231529 47 19 6.1 10.4 0.00 0.00 0.00 37 1013.3
20260505230023 47 355 1.7 11.3 0.00 0.00 0.00 38 1013.3
20260505224534 47 325 1.7 7.8 0.00 0.00 0.00 40 1013.3
20260505223026 47 26 2.6 9.6 0.00 0.00 0.00 38 1013.3
20260505221526 46 307 1.7 12.2 0.00 0.00 0.00 39 1013.5
20260505220016 46 10 2.6 12.2 0.00 0.00 0.00 38 1013.4
20260505214522 46 54 7.0 11.3 0.00 0.00 0.00 38 1013.4
20260505213027 46 14 0.9 9.6 0.00 0.00 0.00 38 1013.6
20260505211529 46 5 1.7 11.3 0.00 0.00 0.00 38 1013.6
20260505210016 46 17 1.7 10.4 0.00 0.00 0.00 38 1013.5
20260505204523 46 345 0.9 10.4 0.00 0.00 0.00 38 1013.7
20260505203026 46 5 6.1 11.3 0.00 0.00 0.00 38 1013.7
20260505201531 47 22 4.3 9.6 0.00 0.00 0.00 38 1013.5
20260505200018 46 11 1.7 13.0 0.00 0.00 0.00 39 1013.4
20260505194526 46 300 1.7 13.0 0.00 0.00 0.00 40 1013.4
20260505193027 46 360 2.6 10.4 0.00 0.00 0.00 40 1013.4
20260505191527 46 29 2.6 7.8 0.00 0.00 0.00 40 1013.4
20260505190016 45 11 1.7 8.7 0.00 0.00 0.00 41 1013.4
20260505184531 44 349 0.9 8.7 0.00 0.00 0.00 43 1013.5
20260505183025 45 5 4.3 8.7 0.00 0.00 0.00 40 1013.4
20260505181526 45 43 2.6 8.7 0.00 0.00 0.00 40 1013.5
20260505180040 45 30 3.5 13.0 0.00 0.00 0.00 40 1013.4
20260505174529 45 355 7.0 13.9 0.00 0.00 0.00 39 1013.2
20260505173028 45 5 7.8 13.0 0.00 0.00 0.00 38 1013.1
20260505171513 45 51 7.0 16.5 0.00 0.00 0.00 39 1013.2
20260505170023 45 12 3.5 13.9 0.00 0.00 0.00 39 1013.1
20260505164524 45 11 2.6 13.0 0.00 0.00 0.00 40 1013.0
20260505163016 45 342 5.2 13.9 0.00 0.00 0.00 41 1012.7